sat.trackr.live / text

‹ back to catalog

ONEWEB-0159

NORAD 48062 · 2021-025W

PAYLOAD ACTIVE UNKNOWN

§ Identity

Operator
Country
UK
Launch date
2021-03-25
Launch site
VOSTO
Launch vehicle
Mass (kg)
RCS (m²)

Purposes: comms

External: N2YO · Heavens-Above · Gunter

§ Orbital elements

Epoch: 2026-05-25T04:26:51.369792Z

Period
109.63 min
Inclination
87.8951°
Eccentricity
0.0001617
Mean motion
13.13468945 rev/d
Perigee alt
1,208.5 km
Apogee alt
1,211.0 km
Semi-major
7,587.9 km
B*
7.3780e-4
RAAN
324.7952°
Arg perigee
97.8598°
Mean anomaly
262.2715°
Rev number
25,058

§ Raw data

ONEWEB-01591 48062U 21025W   26145.18531678  .00000282  00000+0  73780-3 0  99962 48062  87.8951 324.7952 0001617  97.8598 262.2715 13.13468945250582

JSON: /api/v1/satellites/48062 · /tle

For live sub-satellite position, see the globe view (requires WebGL).

§ Visibility from observer

Set your observer location to see the next 7 days of passes ≥ 10°. The values pass through the URL so the page stays shareable.

No JS? Fill the form by hand. The geolocation button needs JavaScript.